Regional Weather Roundup
Issued by NWS

Home | Current Version | Previous Version | Graphics & Text | Print | Product List | Glossary On
Versions: 1 2 3 4 5 6 7 8 9 10 11 12 13 14 15 16 17 18 19 20 21 22 23 24 25 26 27 28 29 30 31 32 33 34 35 36 37 38 39 40 41 42 43 44 45 46 47 48 49 50
000
ASUS43 KDMX 270706
RWRIA

WEATHER ROUNDUP FOR IOWA
NATIONAL WEATHER SERVICE DES MOINES IA
200 AM CDT MON MAR 27 2017

NOTE: "FAIR" INDICATES FEW OR NO CLOUDS BELOW 12,000 FEET WITH NO
SIGNIFICANT WEATHER AND/OR OBSTRUCTIONS TO VISIBILITY.

* - THESE STATIONS ARE NOT NWS STATIONS...THUS NOT UNDER NWS
QUALITY CONTROL.  THEY ALSO DO NOT REPORT WEATHER SUCH
AS PRECIPITATION OR FOG.

IAZ001>003-012>014-020>022-031>034-043>046-270800-
   NORTHWEST IOWA

CITY           SKY/WX    TMP DP  RH WIND       PRES   REMARKS
CARROLL *      CLOUDY    43  43 100 N5        29.93S
CHEROKEE *     CLOUDY    41  40  95 CALM      29.94S
LE MARS *      CLOUDY    43  39  87 CALM      29.95S
ORANGE CITY *  CLOUDY    41  39  93 CALM      29.94S
SHELDON *      CLOUDY    39  39 100 NW5       29.93S
SIOUX CITY     CLOUDY    45  40  82 NE3       29.95S
SPENCER        CLOUDY    40  38  93 W6        29.93
STORM LAKE *   CLOUDY    39  37  93 CALM      29.93S
$$

IAZ055>058-069>071-079>083-090>094-270800-
   SOUTHWEST IOWA

CITY           SKY/WX    TMP DP  RH WIND       PRES   REMARKS
ATLANTIC *     CLOUDY    45  43  93 N6        29.91F
AUDUBON *      CLOUDY    43  39  87 NE5       29.93F FOG
CLARINDA *     CLOUDY    46  45  93 E6        29.95R
COUNCIL BLFS * CLOUDY    45  45 100 E5        29.91S
CRESTON *      CLOUDY    43  43 100 NE8       29.92F FOG
HARLAN  *      CLOUDY    45  45 100 N7        29.95F
LAMONI         CLOUDY    45  43  93 N7        29.90F
RED OAK *      CLOUDY    45  43  93 NE6       29.91F
SHENANDOAH *   CLOUDY    46  43  87 E7        29.92S
$$

IAZ047>049-059>061-072>074-084-270800-
   CENTRAL IOWA

CITY           SKY/WX    TMP DP  RH WIND       PRES   REMARKS
AMES           CLOUDY    43  43 100 N7        29.92S
ANKENY *       CLOUDY    45  43  93 NW6       29.94R FOG
BOONE *        CLOUDY    41  41 100 N6        29.92R
CHARITON *     LGT RAIN  45  45 100 NW5       29.92F
DES MOINES     CLOUDY    45  44  97 N3        29.93R FOG
GRINNELL*      FOG       44  43  97 NW3       29.92S VSB 3/4
MARSHALLTOWN   CLOUDY    43  43 100 N3        29.90F FOG
NEWTON *       CLOUDY    45  43  93 NW5       29.92R FOG
PELLA *        CLOUDY    44  43  97 CALM      29.94R FOG
PERRY *        CLOUDY    43  42  95 N6        29.93S
$$

IAZ004>006-015-016-023>025-035-036-270800-
   NORTH CENTRAL IOWA

CITY           SKY/WX    TMP DP  RH WIND       PRES   REMARKS
ALGONA *       CLOUDY    39  39 100 NW5       29.92S
CLARION *      CLOUDY    41  41 100 N5        29.91F
ESTHERVILLE    CLOUDY    38  38 100 NW6       29.91F WCI  33
FORT DODGE *   CLOUDY    39  36  87 N3        29.92F
MASON CITY     CLOUDY    40  38  93 N6        29.91F FOG
FOREST CITY *  FOG       37  37 100 N3        29.91F VSB 3/4
WEBSTER CITY * CLOUDY    41  39  93 N5G12     29.90S
IOWA FALLS *   CLOUDY    42  41  95 N6        29.91F FOG
$$

IAZ007>011-017>019-026>030-037>042-050>054-066-270800-
   NORTHEAST IOWA

CITY           SKY/WX    TMP DP  RH WIND       PRES   REMARKS
CEDAR RAPIDS   CLOUDY    44  44 100 NW3       29.89F
CHARLES CITY * CLOUDY    41  41 100 N6        29.92S FOG
CLINTON *      CLOUDY    47  46  97 W3        29.92S FOG
DECORAH *      CLOUDY    39  39 100 CALM      29.91R
DUBUQUE        CLOUDY    43  43 100 NW3       29.90S FOG
MONTICELLO *   CLOUDY    45  45 100 CALM      29.90F
OELWEIN *      FOG       41  41 100 N8        29.90F VSB 1/2
WATERLOO       CLOUDY    42  40  92 NW5       29.91F
$$

IAZ064-065-067-068-078-270800-
   EAST CENTRAL IOWA

CITY           SKY/WX    TMP DP  RH WIND       PRES   REMARKS
DAVENPORT      CLOUDY    47  46  97 W6        29.92F FOG
IOWA CITY      CLOUDY    47  45  93 SW3       29.93F
MUSCATINE *    CLOUDY    48  46  93 SW6       29.93S FOG
QUAD CITIES    CLOUDY    48  45  89 SW5       29.92F
$$

IAZ062-063-075>077-085>089-095>099-270800-
   SOUTHEAST IOWA

CITY           SKY/WX    TMP DP  RH WIND       PRES   REMARKS
BURLINGTON     CLOUDY    47  47 100 W3        29.93F FOG
FAIRFIELD *    CLOUDY    46  45  93 SW5       29.93R FOG
FORT MADISON * CLOUDY    48  46  93 CALM      29.95R FOG
KEOKUK *       CLOUDY    48  46  93 SW6       29.94R
OSKALOOSA *    CLOUDY    44  43  97 CALM      29.93R FOG
OTTUMWA        CLOUDY    46  46 100 CALM      29.93R
WASHINGTON *   CLOUDY    46  46 100 CALM      29.93F FOG
$$

ABBREVIATIONS USED IN REMARKS
   TC - TEMPERATURES IN CELSIUS
  WCI - WIND CHILL INDEX
   HX - HEAT INDEX
  VSB - VISIBILITY
$$




USA.gov is the U.S. government's official web portal to all federal, state and local government web resources and services.